Home   Weather   Ann Arbor   Past weeks

Flag for USA Past Weather in Ann Arbor, Michigan, USA — Yesterday and Last 2 Weeks

53 °F

Passing clouds.

Feels Like: 50 °F
Forecast: 41 / 54 °F
Wind: 10 mph from Northwest

Location: Ann Arbor Municipal Airport

Current Time: Oct 24, 2016 at 5:52:06 PM

Latest Report: Oct 24, 2016 at 4:53 PM

Visibility: 10 mi

Pressure: 30.29 "Hg

Humidity: 52%

Dew Point: 36 °F

Location of Ann ArborLocation

Past Weather in Ann Arbor — Graph


Ann Arbor Temperature Yesterday

Maximum temperature yesterday: 65 °F (at 3:53 PM)
Minimum temperature yesterday: 37 °F (at 6:03 AM)
Average temperature yesterday: 53 °F

High & Low Weather Summary for the Past Weeks

High80 °F (Oct 17, 2:53 PM)100% (Oct 10, 1:53 AM)30.47 "Hg (Oct 10, 1:53 AM)
Low30 °F (Oct 14, 7:53 AM)42% (Oct 19, 3:53 PM)29.59 "Hg (Oct 18, 4:53 AM)
Average54 °F80%30.07 "Hg
* Reported Oct 9 4:53 PM — Oct 24 4:53 PM, Ann Arbor, Weather by CustomWeather, © 2016

Note: Actual official high and low records may vary slightly from our data, if they occured in-between our weather recording intervals... More about our weather records


Ann Arbor Weather History for the Previous 24 Hours

Scroll right to see more
Time TempWeatherWind HumidityBarometerVisibility
4:53 PM
Mon, Oct 24
53 °FPassing clouds.10 mph52%30.29 "Hg10 mi
3:53 PM55 °FPartly sunny.15 mph51%30.29 "Hg10 mi
2:53 PM53 °FPartly sunny.14 mph52%30.28 "Hg10 mi
1:53 PM52 °FPartly sunny.12 mph55%30.28 "Hg10 mi
12:53 PM51 °FMostly cloudy.14 mph59%30.29 "Hg10 mi
11:53 AM50 °FOvercast.15 mph61%30.28 "Hg10 mi
10:53 AM49 °FOvercast.17 mph64%30.26 "Hg10 mi
9:53 AM50 °FPartly sunny.16 mph66%30.24 "Hg10 mi
9:02 AM48 °FMostly cloudy.15 mph74%30.21 "Hg10 mi
8:53 AM48 °FMostly cloudy.10 mph74%30.21 "Hg10 mi
7:53 AM48 °FOvercast.8 mph74%30.17 "Hg10 mi
6:53 AM49 °FOvercast.7 mph69%30.16 "Hg10 mi
5:53 AM48 °FOvercast.6 mph77%30.13 "Hg10 mi
4:53 AM45 °FPassing clouds.3 mph82%30.11 "Hg10 mi
3:53 AM47 °FPassing clouds.5 mph83%30.08 "Hg10 mi
2:53 AM48 °FPassing clouds.3 mph86%30.05 "Hg10 mi
1:53 AM50 °FClear.3 mph77%30.02 "Hg10 mi
12:53 AM51 °FPassing clouds.9 mph77%29.99 "Hg10 mi
11:53 PM
Sun, Oct 23
54 °FClear.8 mph72%29.94 "Hg10 mi
10:53 PM56 °FClear.10 mph70%29.90 "Hg10 mi
9:53 PM61 °FClear.13 mph67%29.85 "Hg10 mi
8:53 PM62 °FClear.10 mph65%29.82 "Hg10 mi
7:53 PM58 °FPassing clouds.6 mph75%29.81 "Hg10 mi
6:53 PM62 °FOvercast.5 mph67%29.80 "Hg10 mi
5:53 PM64 °FScattered clouds.7 mph61%29.80 "Hg10 mi
Weather by CustomWeather, © 2016

See weather overviewHow to use our weather pages